EW9765 Weather Reports


time (UTC)temp
C
wind
direction
speed
KPH
gust
KPH
rain 1hr
cm
rain 24hr
cm
rain mn
cm
humidity
%
barometer
mb
20260906210015 22 81 3.2 9.7 0.00 0.00 0.00 76 1018.1
20260906204514 22 81 1.6 8.0 0.00 0.00 0.00 76 1018.0
20260906203009 21 30 1.6 6.4 0.00 0.00 0.00 79 1017.9
20260906201511 21 60 1.6 9.7 0.00 0.00 0.00 79 1017.9
20260906200006 21 61 3.2 11.3 0.00 0.00 0.00 80 1017.9
20260906194505 22 53 3.2 9.7 0.00 0.00 0.00 77 1017.9
20260906193005 22 248 0.0 6.4 0.00 0.00 0.00 78 1017.8
20260906191503 23 32 3.2 9.7 0.00 0.00 0.00 74 1017.8
20260906190003 22 34 8.0 19.3 0.00 0.00 0.00 74 1017.7
20260906184502 22 65 3.2 9.7 0.00 0.00 0.00 76 1017.7
20260906183005 23 63 3.2 9.7 0.00 0.00 0.00 75 1017.9
20260906181609 23 76 1.6 9.7 0.00 0.00 0.00 78 1017.8
20260906180115 22 48 3.2 12.9 0.00 0.00 0.00 78 1017.8
20260906174557 22 78 3.2 8.0 0.00 0.00 0.00 79 1017.8
20260906173054 22 73 3.2 12.9 0.00 0.00 0.00 78 1017.7
20260906171553 22 360 1.6 8.0 0.00 0.00 0.00 80 1017.9
20260906170052 21 346 1.6 8.0 0.00 0.00 0.00 83 1018.0
20260906164552 21 64 1.6 8.0 0.00 0.00 0.00 83 1017.9
20260906163049 22 73 4.8 16.1 0.00 0.00 0.00 81 1017.9
20260906161554 21 338 3.2 8.0 0.00 0.00 0.00 85 1017.8
20260906160048 22 59 1.6 9.7 0.00 0.00 0.00 85 1017.9
20260906154544 21 28 1.6 6.4 0.00 0.00 0.00 88 1017.8
20260906153041 21 68 4.8 14.5 0.00 0.00 0.00 88 1017.8
20260906151538 20 18 1.6 8.0 0.00 0.00 0.00 92 1017.7
20260906150046 20 5 0.0 6.4 0.00 0.00 0.00 92 1017.8
20260906144534 20 19 1.6 9.7 0.00 0.00 0.00 95 1017.7
20260906143029 20 78 4.8 12.9 0.00 0.00 0.00 98 1017.4
20260906141529 19 327 3.2 12.9 0.00 0.00 0.00 99 1017.5
20260906140035 19 26 0.0 8.0 0.00 0.00 0.00 100 1017.4
20260906134523 19 54 0.0 12.9 0.00 0.00 0.00 100 1017.2
20260906133021 18 50 1.6 4.8 0.00 0.00 0.00 100 1017.2
20260906131520 18 40 0.0 12.9 0.00 0.00 0.00 100 1017.2
20260906130020 18 74 1.6 4.8 0.00 0.00 0.00 100 1017.1
20260906124515 17 30 0.0 6.4 0.00 0.00 0.00 100 1017.1
20260906123017 17 24 0.0 4.8 0.00 0.00 0.00 100 1017.1
20260906121521 16 24 0.0 3.2 0.00 0.00 0.00 100 1017.0
20260906120005 15 24 0.0 0.0 0.00 0.00 0.00 100 1016.9
20260906114503 13 24 0.0 0.0 0.00 0.00 0.00 100 1016.7
20260906113006 13 24 0.0 0.0 0.00 0.00 0.00 100 1016.5
20260906111600 13 24 0.0 0.0 0.00 0.00 0.00 100 1016.3
20260906110059 13 24 0.0 0.0 0.00 0.03 0.00 100 1016.2
20260906104656 13 24 0.0 0.0 0.00 0.03 0.00 100 1016.0
20260906103055 13 24 0.0 0.0 0.00 0.03 0.00 100 1015.9
20260906101554 13 24 0.0 0.0 0.00 0.03 0.00 100 1015.8
20260906100052 13 24 0.0 0.0 0.00 0.03 0.00 100 1015.7
20260906094551 14 24 0.0 0.0 0.00 0.03 0.00 100 1015.6
20260906093049 14 24 0.0 0.0 0.00 0.03 0.00 100 1015.4
20260906091546 14 24 0.0 0.0 0.00 0.03 0.00 100 1015.4
20260906090045 14 24 0.0 0.0 0.00 0.03 0.00 100 1015.3
20260906084543 14 24 0.0 0.0 0.00 0.03 0.00 100 1015.0
20260906083040 15 24 0.0 0.0 0.00 0.03 0.00 100 1014.7
20260906081544 15 24 0.0 0.0 0.00 0.03 0.00 100 1014.6
20260906080040 15 24 0.0 0.0 0.00 0.03 0.00 100 1014.6
20260906074545 15 24 0.0 0.0 0.00 0.03 0.00 100 1014.7
20260906073036 15 24 0.0 0.0 0.00 0.03 0.00 100 1014.7
20260906071537 15 24 0.0 0.0 0.00 0.03 0.00 100 1014.6
20260906070035 15 24 0.0 0.0 0.00 0.03 0.00 100 1014.5
20260906064535 15 24 0.0 0.0 0.00 0.03 0.00 100 1014.6
20260906063034 15 24 0.0 0.0 0.00 0.03 0.00 100 1014.6
20260906061534 15 24 0.0 0.0 0.00 0.03 0.00 100 1014.6
20260906060035 16 24 0.0 0.0 0.00 0.03 0.00 100 1014.7
20260906054535 15 24 0.0 0.0 0.00 0.03 0.00 100 1014.7
20260906053034 15 24 0.0 0.0 0.00 0.03 0.00 100 1014.7
20260906051530 15 24 0.0 0.0 0.00 0.03 0.00 100 1014.8
20260906050038 15 24 0.0 0.0 0.00 0.03 0.00 100 1014.7
20260906044535 15 24 0.0 0.0 0.00 0.03 0.00 100 1014.8
20260906043026 15 24 0.0 0.0 0.00 0.03 0.00 100 1014.6
20260906041528 15 24 0.0 0.0 0.00 0.03 0.00 100 1014.5
20260906040028 15 24 0.0 0.0 0.00 0.03 0.03 100 1014.5
20260906034526 15 24 0.0 0.0 0.00 0.03 0.03 100 1014.4
20260906033036 16 24 0.0 0.0 0.00 0.03 0.03 100 1014.4
20260906031521 16 24 0.0 0.0 0.00 0.03 0.03 100 1014.2
20260906030019 16 24 0.0 0.0 0.00 0.03 0.03 100 1014.2
20260906024518 16 24 0.0 0.0 0.00 0.03 0.03 100 1014.2
20260906023017 16 24 0.0 0.0 0.00 0.03 0.03 100 1014.1
20260906021516 16 24 0.0 0.0 0.00 0.03 0.03 100 1014.0
20260906020015 16 24 0.0 0.0 0.00 0.03 0.03 100 1014.0
20260906014515 16 24 0.0 0.0 0.00 0.03 0.03 100 1013.9
20260906013014 17 24 0.0 0.0 0.00 0.03 0.03 100 1013.8
20260906011513 17 24 0.0 0.0 0.00 0.03 0.03 100 1013.8
20260906010012 17 24 0.0 0.0 0.00 0.03 0.03 100 1013.6
20260906004511 17 24 0.0 0.0 0.00 0.03 0.03 100 1013.6
20260906003011 17 24 0.0 0.0 0.00 0.03 0.03 99 1013.5
20260906001511 18 24 0.0 0.0 0.00 0.03 0.03 97 1013.5
20260906000010 18 24 0.0 0.0 0.00 0.03 0.03 93 1013.6
20260905234508 20 24 0.0 0.0 0.00 0.03 0.03 90 1013.6
20260905233008 21 24 0.0 0.0 0.00 0.03 0.03 84 1013.5
20260905231508 22 24 0.0 0.0 0.00 0.03 0.03 81 1013.5
20260905230008 22 24 0.0 3.2 0.00 0.03 0.03 78 1013.4
20260905224507 23 24 0.0 3.2 0.00 0.03 0.03 76 1013.3
20260905223007 23 24 0.0 3.2 0.00 0.03 0.03 74 1013.4
20260905221506 24 22 0.0 3.2 0.00 0.03 0.03 73 1013.3
20260905220006 24 42 0.0 4.8 0.00 0.03 0.03 71 1013.3
20260905214506 24 38 0.0 6.4 0.00 0.03 0.03 70 1013.0
20260905213004 25 45 1.6 8.0 0.00 0.03 0.03 70 1012.9
20260905211502 24 28 0.0 4.8 0.00 0.03 0.03 73 1012.7